Regional Weather Roundup
Issued by NWS

Home | Current Version | Previous Version | Text Only | Print | Product List | Glossary Off
Versions: 1 2 3 4 5 6 7 8 9 10 11 12 13 14 15 16 17 18 19 20 21 22 23 24 25 26 27 28 29 30 31 32 33 34 35 36 37 38 39 40 41 42 43 44 45 46 47 48 49 50

000
ASUS45 KSLC 261810
RWRUT

UTAH REGIONAL WEATHER ROUNDUP
NATIONAL WEATHER SERVICE SALT LAKE CITY UT
1100 AM MST MON JAN 26 2015

UTZ001>011-023>025-261900-

NORTHERN UTAH

CITY           SKY/WX    TMP DP  RH WIND       PRES   REMARKS
BRIGHAM CITY   SUNNY     37  32  84 CALM      30.39F
HILL AFB       SUNNY     42  28  56 N5        30.38S
LOGAN          FOG       30  29  96 CALM      30.40F VSB 1/4
OGDEN          SUNNY     43  32  65 N5        30.38S
PROVO AIRPORT  NOT AVBL
SALT LAKE CITY SUNNY     45  32  60 CALM      30.38S
VERNAL         SUNNY     38  24  57 CALM      30.49S
WENDOVER       SUNNY     37  30  75 E5        30.39S WCI  34
HEBER CITY     SUNNY     32  27  80 CALM      30.42F
WEST JORDAN    SUNNY     46  34  61 SE3       30.38S

$$

UTZ012>022-026-027-261900-

SOUTHERN/CENTRAL UTAH

CITY           SKY/WX    TMP DP  RH WIND       PRES   REMARKS
BLANDING       SUNNY     48  25  40 CALM      30.45F
BRYCE CANYON   SUNNY     45  25  45 SE9       30.40R
CEDAR CITY     SUNNY     43  32  65 W3        30.31S
DELTA          SUNNY     42  32  68 NE9       30.33F
MILFORD        SUNNY     42  32  67 N5        30.34S
MOAB/CYNLANDS  SUNNY     46  27  47 NE12      30.39F
PRICE          SUNNY     45  25  45 CALM      30.39S
ST GEORGE      CLEAR     48  28  46 CALM      30.30R
KANAB          SUNNY     54  27  35 NE17G24   30.35F

$$

REGIONAL REPORTS     COLORADO/ARIZONA

CITY           SKY/WX    TMP DP  RH WIND       PRES   REMARKS
CRAIG, CO      SUNNY     27  22  81 SW5       30.47F WCI  22
GRAND JUNCTION SUNNY     45  25  45 SE7       30.43F
RIFLE          SUNNY     41  25  53 SE5       30.46F
MONTROSE       SUNNY     44  25  47 VRB3      30.46F
CORTEZ         SUNNY     50  26  39 CALM      30.38F
PAGE, AZ       SUNNY     45  25  45 VRB3      30.37S
GRAND CANYON   MOSUNNY   49  23  36 E13G20    30.36R
KINGMAN        MOSUNNY   61  25  25 NW7       30.21R
FLAGSTAFF      PTSUNNY   46  22  38 E10       30.37R

$$

REGIONAL REPORTS    NEVADA/IDAHO/WYOMING

CITY           SKY/WX    TMP DP  RH WIND       PRES   REMARKS
LAS VEGAS, NV  PTSUNNY   63  31  30 CALM      30.15S
ELY            SUNNY     43  28  55 CALM      30.34F
ELKO           SUNNY     40  32  73 CALM      30.29F
POCATELLO, ID  FOG       32  32 100 NE6       30.39F VSB 1/2 WCI  26
BURLEY         CLOUDY    32  31  96 NE13      30.33S FOG     WCI  22
EVANSTON, WY   MOSUNNY   40  28  62 NE3       30.42S
ROCK SPRINGS   SUNNY     43  27  53 VRB3      30.42S
KEMMERER       SUNNY     34  27  75 N7        30.43S WCI  28

$$


USA.gov is the U.S. government's official web portal to all federal, state and local government web resources and services.